When you browse on this site, cookies collect data to enhance your experience and personalize the content and advertising you see.
Visit our Privacy Policy to learn more. By continuing to use the site, you agree to this use of cookies and data.
  • In Hungary
  • List of Countries
  • For 7 days
  • Water Temperature
  • Satellite Maps
  • Weather Map
  • News
  • Weather Widgets
  • user-avatar
    Login

    Hourly Weather Bellview

    Today, 19 June, Wednesday

    Time Temperature Precipitation Wind Pressure Humidity
    00:00 +28°C° 0.2 mm 4 mps 757 mmHg 83%
    01:00 +27°C° 0.1 mm 4 mps 757 mmHg 84%
    02:00 +27°C° 0.1 mm 4 mps 756 mmHg 85%
    03:00 +27°C° 0.1 mm 4 mps 756 mmHg 85%
    04:00 +27°C° 0 mm 3 mps 756 mmHg 85%
    05:00 +27°C° 0 mm 3 mps 756 mmHg 84%
    06:00 +28°C° 0 mm 3 mps 756 mmHg 83%
    07:00 +30°C° 0 mm 4 mps 756 mmHg 74%
    08:00 +32°C° 0 mm 4 mps 757 mmHg 65%
    09:00 +34°C° 0 mm 4 mps 757 mmHg 56%
    10:00 +35°C° 0 mm 5 mps 757 mmHg 53%
    11:00 +36°C° 0 mm 5 mps 757 mmHg 49%
    12:00 +36°C° 0 mm 5 mps 757 mmHg 46%
    13:00 +36°C° 0 mm 6 mps 756 mmHg 46%
    14:00 +36°C° 0 mm 6 mps 756 mmHg 46%
    15:00 +36°C° 0 mm 6 mps 755 mmHg 47%
    16:00 +35°C° 0 mm 5 mps 755 mmHg 53%
    17:00 +33°C° 0 mm 5 mps 755 mmHg 60%
    18:00 +32°C° 0 mm 5 mps 755 mmHg 66%
    19:00 +32°C° 0 mm 5 mps 755 mmHg 71%
    20:00 +30°C° 0 mm 5 mps 756 mmHg 75%
    21:00 +29°C° 0 mm 5 mps 756 mmHg 79%
    22:00 +29°C° 0 mm 5 mps 756 mmHg 80%
    23:00 +29°C° 0 mm 5 mps 756 mmHg 81%

    Tomorrow, 20 June, Thursday

    Time Temperature Precipitation Wind Pressure Humidity
    00:00 +29°C° 0 mm 5 mps 756 mmHg 81%
    01:00 +29°C° 0 mm 5 mps 756 mmHg 82%
    02:00 +28°C° 0 mm 5 mps 756 mmHg 83%
    03:00 +28°C° 0 mm 5 mps 756 mmHg 84%
    04:00 +28°C° 0 mm 5 mps 756 mmHg 83%
    05:00 +29°C° 0 mm 5 mps 756 mmHg 82%
    06:00 +29°C° 0 mm 5 mps 757 mmHg 81%
    07:00 +32°C° 0 mm 5 mps 757 mmHg 73%
    08:00 +33°C° 0 mm 6 mps 757 mmHg 65%
    09:00 +35°C° 0 mm 6 mps 757 mmHg 58%
    10:00 +35°C° 0 mm 6 mps 757 mmHg 56%
    11:00 +36°C° 0 mm 7 mps 757 mmHg 54%
    12:00 +36°C° 0 mm 7 mps 757 mmHg 52%
    13:00 +36°C° 0 mm 7 mps 757 mmHg 54%
    14:00 +36°C° 0 mm 7 mps 757 mmHg 55%
    15:00 +36°C° 0 mm 7 mps 756 mmHg 56%
    16:00 +35°C° 0 mm 7 mps 757 mmHg 61%
    17:00 +34°C° 0 mm 6 mps 757 mmHg 65%
    18:00 +33°C° 0 mm 6 mps 757 mmHg 70%
    19:00 +32°C° 0 mm 6 mps 757 mmHg 73%
    20:00 +32°C° 0 mm 5 mps 757 mmHg 76%
    21:00 +30°C° 0 mm 5 mps 758 mmHg 80%
    22:00 +30°C° 0 mm 5 mps 758 mmHg 81%
    23:00 +30°C° 0 mm 5 mps 758 mmHg 82%

    Day after tomorrow, 21 June, Friday

    Time Temperature Precipitation Wind Pressure Humidity
    00:00 +30°C° 0 mm 5 mps 758 mmHg 83%
    01:00 +29°C° 0 mm 4 mps 758 mmHg 85%
    02:00 +29°C° 0 mm 4 mps 758 mmHg 86%
    03:00 +29°C° 0 mm 4 mps 758 mmHg 88%
    04:00 +29°C° 0 mm 3 mps 759 mmHg 87%
    05:00 +29°C° 0 mm 3 mps 759 mmHg 86%
    06:00 +29°C° 0 mm 3 mps 760 mmHg 86%
    07:00 +31°C° 0 mm 3 mps 760 mmHg 79%
    08:00 +33°C° 0 mm 3 mps 760 mmHg 72%
    09:00 +34°C° 0 mm 3 mps 760 mmHg 65%
    10:00 +35°C° 0 mm 4 mps 760 mmHg 61%
    11:00 +36°C° 0 mm 5 mps 760 mmHg 56%
    12:00 +37°C° 0 mm 5 mps 760 mmHg 52%
    13:00 +37°C° 0 mm 5 mps 760 mmHg 53%
    14:00 +37°C° 0 mm 5 mps 760 mmHg 54%
    15:00 +36°C° 0 mm 6 mps 760 mmHg 55%
    16:00 +35°C° 0 mm 5 mps 760 mmHg 59%
    17:00 +34°C° 0 mm 5 mps 760 mmHg 64%
    18:00 +33°C° 0 mm 4 mps 760 mmHg 68%
    19:00 +32°C° 0 mm 4 mps 760 mmHg 73%
    20:00 +30°C° 0 mm 4 mps 760 mmHg 78%
    21:00 +29°C° 0 mm 3 mps 761 mmHg 82%
    22:00 +29°C° 0 mm 3 mps 761 mmHg 84%
    23:00 +29°C° 0 mm 3 mps 761 mmHg 86%

    22 June, Saturday

    Time Temperature Precipitation Wind Pressure Humidity
    00:00 +28°C° 0 mm 3 mps 761 mmHg 88%
    01:00 +28°C° 0 mm 3 mps 761 mmHg 90%
    02:00 +28°C° 0 mm 3 mps 761 mmHg 91%
    03:00 +28°C° 0 mm 3 mps 761 mmHg 93%
    04:00 +28°C° 0 mm 2 mps 761 mmHg 91%
    05:00 +28°C° 0 mm 2 mps 761 mmHg 90%
    06:00 +28°C° 0 mm 2 mps 762 mmHg 88%
    07:00 +30°C° 0 mm 2 mps 762 mmHg 78%
    08:00 +32°C° 0 mm 2 mps 762 mmHg 69%
    09:00 +35°C° 0 mm 2 mps 763 mmHg 59%
    10:00 +36°C° 0 mm 3 mps 762 mmHg 54%
    11:00 +37°C° 0 mm 3 mps 762 mmHg 50%
    12:00 +38°C° 0 mm 4 mps 762 mmHg 45%
    13:00 +38°C° 0 mm 4 mps 762 mmHg 45%
    14:00 +37°C° 0 mm 4 mps 761 mmHg 45%
    15:00 +37°C° 0 mm 4 mps 761 mmHg 45%
    16:00 +36°C° 0 mm 4 mps 761 mmHg 51%
    17:00 +35°C° 0 mm 4 mps 761 mmHg 56%
    18:00 +33°C° 0 mm 4 mps 760 mmHg 62%
    19:00 +32°C° 0 mm 4 mps 761 mmHg 68%
    20:00 +30°C° 0 mm 3 mps 761 mmHg 75%
    21:00 +29°C° 0 mm 3 mps 761 mmHg 81%
    22:00 +28°C° 0 mm 3 mps 761 mmHg 82%
    23:00 +28°C° 0 mm 3 mps 761 mmHg 84%

    23 June, Sunday

    Time Temperature Precipitation Wind Pressure Humidity
    00:00 +28°C° 0 mm 3 mps 761 mmHg 85%
    01:00 +28°C° 0 mm 3 mps 761 mmHg 87%
    02:00 +28°C° 0 mm 3 mps 760 mmHg 88%
    03:00 +27°C° 0 mm 3 mps 760 mmHg 89%
    04:00 +28°C° 0 mm 2 mps 760 mmHg 88%
    05:00 +28°C° 0 mm 2 mps 761 mmHg 86%
    06:00 +28°C° 0 mm 2 mps 761 mmHg 84%
    07:00 +30°C° 0 mm 2 mps 761 mmHg 72%
    08:00 +34°C° 0 mm 2 mps 761 mmHg 60%
    09:00 +35°C° 0 mm 1 mps 761 mmHg 47%
    10:00 +37°C° 0 mm 2 mps 761 mmHg 43%
    11:00 +38°C° 0 mm 3 mps 761 mmHg 39%
    12:00 +38°C° 0 mm 3 mps 761 mmHg 36%
    13:00 +38°C° 0 mm 4 mps 761 mmHg 36%
    14:00 +38°C° 0 mm 4 mps 760 mmHg 37%
    15:00 +37°C° 0 mm 4 mps 760 mmHg 37%
    16:00 +36°C° 0 mm 4 mps 760 mmHg 44%
    17:00 +34°C° 0 mm 4 mps 759 mmHg 50%
    18:00 +33°C° 0 mm 4 mps 759 mmHg 56%
    19:00 +32°C° 0 mm 4 mps 759 mmHg 62%
    20:00 +30°C° 0 mm 4 mps 759 mmHg 69%
    21:00 +28°C° 0 mm 4 mps 760 mmHg 76%
    22:00 +28°C° 0 mm 3 mps 759 mmHg 78%
    23:00 +28°C° 0 mm 3 mps 759 mmHg 81%

    24 June, Monday

    Time Temperature Precipitation Wind Pressure Humidity
    00:00 +28°C° 0 mm 3 mps 759 mmHg 83%
    01:00 +27°C° 0 mm 3 mps 759 mmHg 85%
    02:00 +27°C° 0 mm 3 mps 759 mmHg 87%
    03:00 +27°C° 0 mm 2 mps 758 mmHg 89%
    04:00 +27°C° 0 mm 3 mps 759 mmHg 88%
    05:00 +28°C° 0 mm 3 mps 759 mmHg 87%
    06:00 +28°C° 0 mm 3 mps 759 mmHg 85%
    07:00 +30°C° 0 mm 3 mps 759 mmHg 74%
    08:00 +34°C° 0 mm 3 mps 759 mmHg 62%
    09:00 +36°C° 0 mm 3 mps 760 mmHg 51%
    10:00 +37°C° 0 mm 3 mps 760 mmHg 47%
    11:00 +37°C° 0 mm 4 mps 760 mmHg 43%
    12:00 +38°C° 0 mm 4 mps 760 mmHg 39%
    13:00 +39°C° 0 mm 5 mps 759 mmHg 40%
    14:00 +39°C° 0 mm 5 mps 759 mmHg 41%
    15:00 +39°C° 0 mm 5 mps 758 mmHg 42%
    16:00 +36°C° 0 mm 5 mps 758 mmHg 49%
    17:00 +35°C° 0 mm 5 mps 758 mmHg 56%
    18:00 +33°C° 0 mm 4 mps 758 mmHg 62%
    19:00 +32°C° 0 mm 4 mps 758 mmHg 68%
    20:00 +30°C° 0 mm 4 mps 759 mmHg 73%
    21:00 +29°C° 0 mm 4 mps 759 mmHg 79%
    22:00 +29°C° 0 mm 3 mps 759 mmHg 81%
    23:00 +29°C° 0 mm 3 mps 759 mmHg 83%
    Show more